(315754) = 2008 FG38

Discovered at Kitt Peak on 2008-03-28 by Spacewatch.

Orbit

Orbit type: Main Belt

Note: WebGL enabled browser required.

epoch2023-09-13.0
epoch JD2460200.5
perihelion date2021-05-12.18213
perihelion JD2459346.68213
argument of perihelion (°)59.31182
ascending node (°)66.31040
inclination (°)5.03789
eccentricity0.0527638
perihelion distance (AU)2.6411917
Tisserand w.r.t. Jupiter3.3
ΔV w.r.t. Earth (km/sec)10.3
semimajor axis (AU)2.7883137
mean anomaly (°)180.74098
mean daily motion (°/day)0.21168560
aphelion distance (AU)2.935
period (years)4.66
P-vector [x]-0.57939610
P-vector [y]0.71453465
P-vector [z]0.39209743
Q-vector [x]-0.81106942
Q-vector [y]-0.55293089
Q-vector [z]-0.19087649
absolute magnitude16.88
phase slope0.15
uncertainty0
referenceMPEC 2023-P22
observations used234
oppositions14
arc length (days)7874
first opposition used2002
last opposition used2023
residual rms (arc-secs)0.74
perturbers coarse indicatorM-v
perturbers precise indicator003Ek
first observation date used2002-01-13.0
last observation date used2023-08-05.0
computer nameMPCLINUX
JD of orbit computation2456937.482575
perihelion JD uncertainty (days)2.0929E-04
argument of perihelion uncertainty (°)6.3565E-05
ascending node uncertainty (°)4.7487E-05
inclination uncertainty (°)3.4067E-06
eccentricity uncertainty 3.3204E-08
perihelion distance uncertainty (AU)9.6891E-08
Minimum Orbit Intersection Distances (in AU)
for orbit epoch: 2460200.5, reference: E2023-P22
Mercury2.29725
Venus1.92318
Earth1.65974
Mars0.99191
Jupiter2.09458
Saturn6.37714
Uranus15.7749
Neptune27.0157

Observations

234 total observations over interval: 2002 01 13.15217 – 2023 08 05.304917
These data are available for download (format description).

Date (UT) J2000 RA J2000 Dec Magn Location Ref
2002 01 13.15217 03 05 55.27 +17 36 36.0 21.8 V 291 – LPL/Spacewatch II MPS 249845
2002 01 13.17300 03 05 55.47 +17 36 38.8 22.0 V 291 – LPL/Spacewatch II MPS 249845
2002 01 13.19396 03 05 55.70 +17 36 41.6 21.9 V 291 – LPL/Spacewatch II MPS 249845
2003 03 10.35520 11 14 17.21 +13 27 51.0 20.6   644 – Palomar Mountain/NEAT MPS 249845
2003 03 10.42066 11 14 13.73 +13 28 09.2 20.4   644 – Palomar Mountain/NEAT MPS 249845
2003 03 10.48351 11 14 10.44 +13 28 26.0 21.2   644 – Palomar Mountain/NEAT MPS 249845
2006 12 26.12038 06 06 11.76 +26 54 38.6 20.3 V 691 – Steward Observatory, Kitt Peak-Spacewatch MPS 249845
2006 12 26.13772 06 06 10.67 +26 54 40.6 20.2 V 691 – Steward Observatory, Kitt Peak-Spacewatch MPS 249845
2006 12 26.15506 06 06 09.57 +26 54 42.6 20.3 V 691 – Steward Observatory, Kitt Peak-Spacewatch MPS 249845
2008 03 05.45487 13 49 45.76 -05 07 45.0 21.1 V G96 – Mt. Lemmon Survey MPS 245848
2008 03 05.46134 13 49 45.66 -05 07 43.5 21.2 V G96 – Mt. Lemmon Survey MPS 245848
2008 03 05.46781 13 49 45.51 -05 07 42.8 21.2 V G96 – Mt. Lemmon Survey MPS 245848
2008 03 05.47433 13 49 45.40 -05 07 41.8 21.5 V G96 – Mt. Lemmon Survey MPS 245848
2008 03 06.44944 13 49 28.21 -05 05 22.8 21.8 V 691 – Steward Observatory, Kitt Peak-Spacewatch MPS 245848
2008 03 06.46710 13 49 27.83 -05 05 20.9 21.3 V 691 – Steward Observatory, Kitt Peak-Spacewatch MPS 245848
2008 03 06.48477 13 49 27.50 -05 05 18.3 21.9 V 691 – Steward Observatory, Kitt Peak-Spacewatch MPS 245848
2008 03 10.44142 13 48 03.08 -04 54 56.2 20.6 V 691 – Steward Observatory, Kitt Peak-Spacewatch MPS 247649
2008 03 10.45911 13 48 02.64 -04 54 53.3 20.7 V 691 – Steward Observatory, Kitt Peak-Spacewatch MPS 247649
2008 03 10.47681 13 48 02.16 -04 54 50.4 20.8 V 691 – Steward Observatory, Kitt Peak-Spacewatch MPS 247649
2008 03 28.23697 13 37 31.34 -03 53 00.0 20.7 V 691 – Steward Observatory, Kitt Peak-Spacewatch MPS 244870
2008 03 28.25457 13 37 30.55 -03 52 55.8 20.9 V 691 – Steward Observatory, Kitt Peak-Spacewatch MPS 244870
2008 03 28.27218 13 37 29.70 -03 52 51.7 21.2 V 691 – Steward Observatory, Kitt Peak-Spacewatch MPS 244870
2008 03 31.22826 13 35 13.26 -03 41 07.4 20.7 V 691 – Steward Observatory, Kitt Peak-Spacewatch MPS 244870
2008 03 31.24584 13 35 12.36 -03 41 03.4 20.5 V 691 – Steward Observatory, Kitt Peak-Spacewatch MPS 244870
2008 03 31.26341 13 35 11.53 -03 40 59.1 20.8 V 691 – Steward Observatory, Kitt Peak-Spacewatch MPS 244870
2008 05 04.28474 13 08 10.66 -01 54 32.1   291 – LPL/Spacewatch II MPS 249029
2008 05 04.28954 13 08 10.47 -01 54 31.9   291 – LPL/Spacewatch II MPS 249029
2008 05 04.29352 13 08 10.30 -01 54 31.4   291 – LPL/Spacewatch II MPS 249029
2008 05 08.16242 13 05 53.20 -01 50 05.8   691 – Steward Observatory, Kitt Peak-Spacewatch MPS 249029
2008 05 08.19049 13 05 52.23 -01 50 03.8   691 – Steward Observatory, Kitt Peak-Spacewatch MPS 249029
2008 05 08.21165 13 05 51.50 -01 50 03.3   691 – Steward Observatory, Kitt Peak-Spacewatch MPS 249029
2010 10 06.437648 01 45 31.830 +05 04 20.27 20.89 w F51 – Pan-STARRS 1, Haleakala MPS 365737
2010 10 06.450161 01 45 31.205 +05 04 17.37 20.92 w F51 – Pan-STARRS 1, Haleakala MPS 365737
2010 10 06.464139 01 45 30.511 +05 04 14.08 20.94 w F51 – Pan-STARRS 1, Haleakala MPS 365737
2010 10 06.477861 01 45 29.830 +05 04 10.94 20.93 w F51 – Pan-STARRS 1, Haleakala MPS 365737
2010 10 11.31711 01 41 32.81 +04 45 29.6 20.4 V 691 – Steward Observatory, Kitt Peak-Spacewatch MPS 351387
2010 10 11.33477 01 41 31.90 +04 45 26.3 20.3 V 691 – Steward Observatory, Kitt Peak-Spacewatch MPS 351387
2010 10 11.34995 01 41 31.15 +04 45 22.4 20.5 V 691 – Steward Observatory, Kitt Peak-Spacewatch MPS 351387
2010 10 30.347364 01 25 25.427 +03 39 45.46 21.20 w F51 – Pan-STARRS 1, Haleakala MPS 365737
2010 10 30.361375 01 25 24.739 +03 39 43.13 21.30 w F51 – Pan-STARRS 1, Haleakala MPS 365737
2010 10 30.375701 01 25 24.021 +03 39 40.81 21.16 w F51 – Pan-STARRS 1, Haleakala MPS 365737
2010 10 30.389702 01 25 23.321 +03 39 38.55 21.22 w F51 – Pan-STARRS 1, Haleakala MPS 365737
2011 12 31.46082 09 15 04.75 +22 25 04.3 20.5 V 691 – Steward Observatory, Kitt Peak-Spacewatch MPS 405987
2011 12 31.47605 09 15 04.31 +22 25 08.3 20.5 V 691 – Steward Observatory, Kitt Peak-Spacewatch MPS 405987
2011 12 31.49127 09 15 03.81 +22 25 12.5 21.1 V 691 – Steward Observatory, Kitt Peak-Spacewatch MPS 405987
2012 01 19.34243 09 02 29.590 +24 02 28.62 20.8 g F51 – Pan-STARRS 1, Haleakala MPS 408852
2012 01 19.35461 09 02 28.949 +24 02 32.62 20.7 g F51 – Pan-STARRS 1, Haleakala MPS 408852
2012 01 20.18806 09 01 45.74 +24 06 55.5 20.3 V 691 – Steward Observatory, Kitt Peak-Spacewatch MPS 407761
2012 01 20.20611 09 01 44.82 +24 07 01.0 20.5 V 691 – Steward Observatory, Kitt Peak-Spacewatch MPS 407761
2012 01 20.22416 09 01 43.87 +24 07 07.2 20.6 V 691 – Steward Observatory, Kitt Peak-Spacewatch MPS 407761
2012 01 25.52430 08 56 56.708 +24 34 23.09 20.3 r F51 – Pan-STARRS 1, Haleakala MPS 408852
2012 01 25.53636 08 56 56.000 +24 34 26.62 20.4 r F51 – Pan-STARRS 1, Haleakala MPS 408852
2012 01 25.54982 08 56 55.230 +24 34 30.64 20.3 i F51 – Pan-STARRS 1, Haleakala MPS 408852
2012 01 25.56241 08 56 54.510 +24 34 34.19 20.2 i F51 – Pan-STARRS 1, Haleakala MPS 408852
2012 02 13.30333 08 39 33.958 +25 49 51.22 20.9 w F51 – Pan-STARRS 1, Haleakala MPS 412974
2012 02 13.31785 08 39 33.190 +25 49 53.77 20.8 w F51 – Pan-STARRS 1, Haleakala MPS 412974
2012 02 13.33239 08 39 32.412 +25 49 56.44 20.9 w F51 – Pan-STARRS 1, Haleakala MPS 412974
2012 02 13.34699 08 39 31.645 +25 49 58.91 20.9 w F51 – Pan-STARRS 1, Haleakala MPS 412974
2013 04 21.40772 15 47 08.48 -17 38 30.2 21.0 V G96 – Mt. Lemmon Survey MPS 465482
2013 04 21.41323 15 47 08.23 -17 38 30.1 20.8 V G96 – Mt. Lemmon Survey MPS 465482
2013 04 21.41863 15 47 07.98 -17 38 29.3 21.0 V G96 – Mt. Lemmon Survey MPS 465482
2013 04 21.42412 15 47 07.76 -17 38 29.1 20.7 V G96 – Mt. Lemmon Survey MPS 465482
2013 05 08.43605 15 33 35.356 -17 16 21.88 20.5 w F51 – Pan-STARRS 1, Haleakala MPS 467435
2013 05 08.45015 15 33 34.572 -17 16 20.56 20.5 w F51 – Pan-STARRS 1, Haleakala MPS 467435
2013 05 08.46424 15 33 33.802 -17 16 19.20 20.6 w F51 – Pan-STARRS 1, Haleakala MPS 467435
2013 05 08.47837 15 33 33.001 -17 16 17.94 20.5 w F51 – Pan-STARRS 1, Haleakala MPS 467435
2013 06 07.88865 15 08 09.05 -16 34 39.0 20.1   J43 – Oukaimeden Observatory, Marrakech MPS 469834
2013 06 07.90365 15 08 08.42 -16 34 38.9 20.1   J43 – Oukaimeden Observatory, Marrakech MPS 469834
2013 06 07.91874 15 08 07.85 -16 34 37.8 20.9   J43 – Oukaimeden Observatory, Marrakech MPS 469834
2013 06 07.93391 15 08 07.20 -16 34 37.5 20.7   J43 – Oukaimeden Observatory, Marrakech MPS 469834
2014 07 08.53471 22 18 08.966 -17 34 53.42 21.1 w F51 – Pan-STARRS 1, Haleakala MPS 523367
2014 07 08.54651 22 18 08.793 -17 34 55.95 21.3 w F51 – Pan-STARRS 1, Haleakala MPS 523367
2014 07 08.55832 22 18 08.607 -17 34 58.54 21.3 w F51 – Pan-STARRS 1, Haleakala MPS 523367
2014 07 08.57013 22 18 08.435 -17 35 00.97 21.2 w F51 – Pan-STARRS 1, Haleakala MPS 523367
2014 07 30.51837 22 07 52.477 -19 15 37.13 21.2 w F51 – Pan-STARRS 1, Haleakala MPS 525341
2014 07 30.52964 22 07 51.983 -19 15 40.61 21.1 w F51 – Pan-STARRS 1, Haleakala MPS 525341
2014 07 30.54088 22 07 51.500 -19 15 44.20 21.2 w F51 – Pan-STARRS 1, Haleakala MPS 525341
2014 07 30.55209 22 07 51.029 -19 15 47.58 21.2 w F51 – Pan-STARRS 1, Haleakala MPS 525341
2014 08 15.40851 21 55 25.656 -20 36 51.52 20.4 i F51 – Pan-STARRS 1, Haleakala MPS 527929
2014 08 15.42041 21 55 25.022 -20 36 54.74 20.5 i F51 – Pan-STARRS 1, Haleakala MPS 527929
2014 08 15.43229 21 55 24.368 -20 36 58.19 20.4 i F51 – Pan-STARRS 1, Haleakala MPS 527929
2014 08 15.44420 21 55 23.755 -20 37 01.73 20.6 i F51 – Pan-STARRS 1, Haleakala MPS 527929
2014 09 11.32902 21 34 13.083 -22 07 07.89 20.8 i F51 – Pan-STARRS 1, Haleakala MPS 532955
2014 09 11.33962 21 34 12.690 -22 07 08.82 20.6 i F51 – Pan-STARRS 1, Haleakala MPS 532955
2014 09 11.35022 21 34 12.272 -22 07 09.96 20.9 i F51 – Pan-STARRS 1, Haleakala MPS 532955
2015 11 04.38907 03 56 39.712 +18 43 36.58 20.7 w F51 – Pan-STARRS 1, Haleakala MPS 644946
